Location: Estherville
(43.4020°N, 94.8330°W)
Time: 00:13:54
(UTC-05:00)

OTV 5 (USA 277) - Visible Passes

Search period start: 24 September 2018 00:00
Search period end: 04 October 2018 00:00
Orbit: 387 x 394 km, 54.5° (Epoch: 08 September)

Date Brightness Start Highest point End Pass type
(mag) Time Alt. Az. Time Alt. Az. Time Alt. Az.
24 Sep ? 06:32:07 10° SSE 06:33:43 13° SE 06:35:20 10° E visible
26 Sep ? 06:14:04 10° S 06:16:44 25° SE 06:19:26 10° ENE visible
27 Sep ? 05:19:30 10° SSE 05:20:38 11° SE 05:21:47 10° ESE visible
28 Sep ? 05:57:42 18° SSW 05:59:49 48° SE 06:02:55 10° ENE visible
29 Sep ? 05:03:56 21° ESE 05:03:56 21° ESE 05:06:09 10° ENE visible
29 Sep ? 06:36:21 10° WSW 06:39:23 41° NNW 06:42:27 10° NE visible
30 Sep ? 05:42:28 60° WSW 05:42:58 85° NW 05:46:11 10° NE visible
01 Oct ? 04:48:29 20° ENE 04:48:29 20° ENE 04:49:43 10° ENE visible
01 Oct ? 06:20:53 16° WNW 06:22:42 26° NNW 06:25:29 10° NNE visible
02 Oct ? 05:26:50 39° N 05:26:50 39° N 05:29:18 10° NE visible
03 Oct ? 04:32:43 12° NE 04:32:43 12° NE 04:33:00 10° NE visible
03 Oct ? 06:05:07 17° NW 06:06:05 19° NNW 06:08:27 10° NNE visible
